FW9516 Weather Reports


time (UTC)temp
C
wind
direction
speed
KPH
gust
KPH
rain 1hr
cm
rain 24hr
cm
rain mn
cm
humidity
%
barometer
mb
20260506224530 15 254 1.6 17.7 0.00 0.00 0.00 72 1020.4
20260506223032 15 258 4.8 12.9 0.00 0.00 0.00 72 1020.4
20260506221527 15 209 4.8 16.1 0.00 0.00 0.00 73 1020.6
20260506220036 15 285 4.8 12.9 0.00 0.00 0.00 71 1020.5
20260506214530 15 242 8.0 22.5 0.00 0.00 0.00 70 1020.6
20260506213028 16 224 6.4 16.1 0.00 0.00 0.00 68 1020.6
20260506211527 15 194 4.8 19.3 0.00 0.00 0.00 71 1020.5
20260506210030 14 172 6.4 14.5 0.00 0.00 0.00 75 1020.6
20260506204535 14 0 4.8 12.9 0.00 0.00 0.00 77 1020.6
20260506203028 13 288 4.8 22.5 0.00 0.00 0.00 78 1020.6
20260506201528 13 296 4.8 19.3 0.00 0.00 0.00 79 1020.5
20260506200030 13 190 1.6 14.5 0.00 0.00 0.00 79 1020.6
20260506194535 13 201 4.8 16.1 0.00 0.00 0.00 80 1020.4
20260506193030 13 219 3.2 16.1 0.00 0.00 0.00 81 1020.5
20260506191530 12 225 1.6 9.7 0.00 0.00 0.00 83 1020.4
20260506190027 12 242 3.2 20.9 0.00 0.00 0.00 84 1020.5
20260506184530 12 199 4.8 14.5 0.00 0.00 0.00 84 1020.5
20260506183030 12 143 6.4 22.5 0.00 0.00 0.00 85 1020.1
20260506181530 12 199 1.6 14.5 0.00 0.00 0.00 86 1020.2
20260506180030 12 0 1.6 11.3 0.00 0.00 0.00 87 1020.3
20260506174529 12 132 3.2 12.9 0.00 0.00 0.00 87 1020.2
20260506173030 11 163 1.6 8.0 0.00 0.00 0.00 88 1020.4
20260506171530 11 209 1.6 12.9 0.00 0.00 0.00 88 1020.3
20260506170029 11 267 1.6 11.3 0.00 0.00 0.00 89 1020.3
20260506164528 11 153 3.2 12.9 0.00 0.00 0.00 89 1020.2
20260506163030 11 203 3.2 8.0 0.00 0.00 0.00 89 1020.2
20260506161532 11 209 1.6 9.7 0.00 0.00 0.00 90 1020.1
20260506160038 11 215 1.6 8.0 0.00 0.00 0.00 90 1020.2
20260506154532 10 210 1.6 9.7 0.00 0.00 0.00 90 1020.0
20260506153029 11 174 0.0 8.0 0.00 0.00 0.00 91 1019.9
20260506151532 10 249 0.0 4.8 0.00 0.00 0.00 91 1019.9
20260506150029 10 215 0.0 8.0 0.00 0.00 0.00 90 1020.0
20260506144527 10 243 1.6 6.4 0.00 0.00 0.00 90 1019.6
20260506143033 10 213 3.2 8.0 0.00 0.00 0.00 90 1019.4
20260506141528 10 230 1.6 6.4 0.00 0.00 0.00 90 1019.5
20260506140030 10 0 1.6 8.0 0.00 0.00 0.00 90 1019.5
20260506134530 10 204 6.4 11.3 0.00 0.00 0.00 90 1019.5
20260506133030 10 0 1.6 6.4 0.00 0.00 0.00 90 1019.4
20260506131543 10 0 0.0 6.4 0.00 0.00 0.00 90 1019.2
20260506130037 11 223 3.2 6.4 0.00 0.00 0.00 90 1019.1
20260506124531 11 0 1.6 9.7 0.00 0.00 0.00 89 1018.9
20260506123028 11 238 1.6 6.4 0.00 0.00 0.00 89 1018.8
20260506121530 11 227 3.2 9.7 0.00 0.00 0.00 89 1018.7
20260506120028 11 248 1.6 6.4 0.00 0.00 0.00 90 1018.6
20260506114528 11 0 0.0 6.4 0.00 0.00 0.00 90 1018.6
20260506113030 11 192 0.0 3.2 0.00 0.00 0.00 90 1018.7
20260506111532 11 0 0.0 3.2 0.00 0.00 0.00 90 1018.6
20260506110028 11 0 0.0 4.8 0.00 0.00 0.00 90 1018.5
20260506104530 11 0 0.0 6.4 0.00 0.00 0.00 90 1018.4
20260506103037 11 0 0.0 4.8 0.00 0.00 0.00 91 1018.2
20260506101528 11 0 0.0 3.2 0.00 0.00 0.00 91 1018.0
20260506100035 11 0 0.0 0.0 0.00 0.00 0.00 91 1017.8
20260506094535 10 0 0.0 0.0 0.00 0.00 0.00 92 1017.8
20260506093035 10 0 0.0 0.0 0.00 0.00 0.00 92 1017.6
20260506091531 10 0 0.0 0.0 0.00 0.00 0.00 91 1017.8
20260506090028 10 0 0.0 0.0 0.00 0.00 0.00 91 1017.7
20260506083030 9 0 0.0 0.0 0.00 0.00 0.00 91 1017.5
20260506081533 9 0 0.0 0.0 0.00 0.00 0.00 90 1017.6
20260506073028 10 0 0.0 0.0 0.00 0.00 0.00 89 1017.4
20260506071529 10 0 0.0 0.0 0.00 0.00 0.00 89 1017.3
20260506061528 11 0 0.0 0.0 0.00 0.00 0.00 88 1016.6
20260506044527 12 0 0.0 0.0 0.00 0.00 0.00 84 1016.2
20260506043029 13 0 0.0 0.0 0.00 0.00 0.00 83 1016.0
20260506041528 13 0 0.0 0.0 0.00 0.00 0.00 82 1015.8
20260506040028 14 0 0.0 0.0 0.00 0.00 0.00 80 1015.8
20260506034528 15 0 0.0 0.0 0.00 0.00 0.00 79 1015.6
20260506033029 15 0 0.0 0.0 0.00 0.00 0.00 77 1015.4
20260506031530 16 0 0.0 3.2 0.00 0.00 0.00 76 1015.2
20260506030035 16 182 1.6 4.8 0.00 0.00 0.00 74 1015.2
20260506024541 17 231 0.0 6.4 0.00 0.00 0.00 73 1015.2
20260506023030 17 192 1.6 8.0 0.00 0.00 0.00 72 1015.2
20260506021530 17 232 3.2 8.0 0.00 0.00 0.00 71 1015.1
20260506020030 17 0 1.6 11.3 0.00 0.00 0.00 70 1015.0
20260506014535 18 0 3.2 11.3 0.00 0.00 0.00 67 1015.1
20260506013028 18 215 3.2 9.7 0.00 0.00 0.00 66 1015.0
20260506011530 18 0 3.2 9.7 0.00 0.00 0.00 68 1015.0
20260506010033 18 233 4.8 11.3 0.00 0.00 0.00 66 1015.1
20260506004530 19 207 4.8 9.7 0.00 0.00 0.00 67 1015.1
20260506003033 18 206 3.2 11.3 0.00 0.00 0.00 66 1015.1
20260506001532 18 241 3.2 9.7 0.00 0.00 0.00 67 1015.2
20260506000028 18 298 3.2 9.7 0.00 0.00 0.00 66 1015.3
20260505234534 18 265 0.0 12.9 0.00 0.00 0.00 67 1015.5
20260505233027 18 278 3.2 11.3 0.00 0.00 0.00 68 1015.6
20260505231529 18 202 4.8 16.1 0.00 0.00 0.00 71 1015.6
20260505230046 17 263 0.0 9.7 0.00 0.00 0.00 70 1015.8